Skip Page Navigation
NASA JPL Caltech
NASA Logo - Jet Propulsion Laboratory + View the NASA Portal
+ Near-Earth Object (NEO) Program
Search JPL
JPL Home Earth Solar System Stars & Galaxies Technology
JPL Solar System Dynamics
BODIES ORBITS EPHEMERIDES TOOLS PHYSICAL DATA DISCOVERY FAQ SITE MAP
JPL Small-Body Database Browser
Search: [ help ]  
17776 Troska (1998 FF3)
Classification: Main-belt Asteroid          SPK-ID: 2017776
Ephemeris | Orbit Diagram | Orbital Elements | Physical Parameters | Discovery Circumstances ]

[ hide orbit diagram ]
Orbit Diagram
Note: Make sure you have Java enabled on your browser to see the applet. This applet is provided as a 3D orbit visualization tool. The applet was implemented using 2-body methods, and hence should not be used for determining accurate long-term trajectories (over several years or decades) or planetary encounter circumstances. For accurate long-term ephemerides, please instead use our Horizons system.
Orbit Viewer

Additional Notes: the orbits shown in the applet are color coded. The planets are white lines, and the asteroid/comet is a blue line. The bright white line indicates the portion of the orbit that is above the ecliptic plane, and the darker portion is below the ecliptic plane. Likewise for the asteroid/comet orbit, the light blue indicates the portion above the ecliptic plane, and the dark blue the portion below the ecliptic plane.

Orbit Viewer applet originally written and kindly provided by Osamu Ajiki (AstroArts), and further modified by Ron Baalke (JPL).


Orbital Elements at Epoch 2456400.5 (2013-Apr-18.0) TDB
Reference: MPO253488 (heliocentric ecliptic J2000)
 Element Value Uncertainty (1-sigma)   Units 
e 0.0811955 n/a  
a 2.4835950 n/a AU
q 2.2819383 n/a AU
i 7.46155 n/a deg
node 320.63347 n/a deg
peri 235.65591 n/a deg
M 293.55492 n/a deg
tp 2456664.3638662
(2014-Jan-06.86386620)
n/a JED
period 1429.6166372
3.91
n/a
n/a
d
yr
n 0.25181576 n/a deg/d
Q 2.6852517 n/a AU
  Orbit Determination Parameters
   # obs. used (total)      710  
   first obs. used      1994-??-??  
   last obs. used      2013-02-10  
   # oppositions      14  
   planetary ephem.      DE403  
   condition code      0  
   fit RMS      0.52  
   data source      MPC:mpn  
   producer      MPCLINUX  

Additional Information
 T_jup = 3.461 

Ephemeris | Orbit Diagram | Orbital Elements | Physical Parameters | Discovery Circumstances ]

Physical Parameter Table
Parameter Symbol Value Units Sigma Reference Notes
absolute magnitude H 14.7 mag n/a PDS3 (MPO 4148)  

17776 Troska           Discovered 1998 Mar. 22 by P. Pravec at Ondrejov.
Jan Matzal, the pseudonym of J. M. Troska (1881-1961), was a great Czech writer of adventure science fiction in the 1930s. His greatest work, the trilogy Zápas s nebem ("Struggle with the Sky") describes a marvelous journey through the whole inner solar system, including visits to and being marooned on minor planets.
NOTE: some special characters may not display properly (any characters within {} are an attempt to place the proper accent above a character)
Reference: 20010705/MPCPages.arcLast Updated: 2009-05-11

Alternate Designations
 1998 FF3 = 1994 CZ7 = 1995 OQ1 
Ephemeris | Orbit Diagram | Orbital Elements | Physical Parameters | Discovery Circumstances ]
ABOUT SSD CREDITS/AWARDS PRIVACY/COPYRIGHT GLOSSARY LINKS
FirstGov 2013-Jun-19 10:42 UT
(server date/time)  
NASA Home Page
Site Manager:   Donald K. Yeomans
Webmaster  Alan B. Chamberlin